星链-31588 (STARLINK-31588 )

导读

STARLINK-31588是美国太空探索技术公司(SpaceX)星链(Starlink)星座的组成卫星,于2024年3月25日发射升空。星链项目旨在打造全球卫星互联网星座,该卫星入轨后,进一步拓展了星链星座的覆盖规模,助力为全球提供低延迟、高速率的卫星互联网接入服务。

基本信息
目录编号:
59335
目录名称:
STARLINK-31588
国际标识:
2024-057R
轨道中心:
EARTH
卫星名称:
星链-31588
卫星全名:
星链-31588 (STARLINK-31588 )
卫星状态:
在轨 (已飞行815 天)
发射日期:
2024-03-25 UTC
国别 :
美国 (US)
星等 :
--
轨道信息
数据来源 国际轨道数据
星历时间: 2026-06-17T13:05:23+0800
22小时前
查看轨道信息
半长轴: 6861.188km
偏心率: 0.0001937
轨道倾角: 43.007°
近地点辐角 262.398°
升交点赤经 344.683°
平近点角 97.665°
近地点: 481.721km
远地点: 484.381km
周期: 94.267分钟
每日圈数: 15.275796
详细信息
固有亮度:
5
最大亮度:
0.3
卫星平台:
Starlink v2.0 mini
覆盖范围:
全球
运营商:
太空探索技术公司
运营商所在国:
美国
制造商(研发单位):
太空探索技术公司
制造商所在国:
美国
使用方式:
暂无
卫星简介
星链(Starlink)计划是由太空探索技术公司(SpaceX)提出的一个巨型低轨卫星互联网星座项目,计划在2019年至2024年间在太空搭建由约1.2万颗卫星组成的“星链”网络,其中1584颗将部署在地球上空550千米处的近地轨道,并从2020年开始工作。该卫星仍在工作。
2D轨道图
3D轨道图
轨道高度分析图
轨道倾角分析图
轨道综合分析图
查看轨道综合分析图